Location: Crab Creek Junction
(41.0834°N, 80.6165°W)
Time: 01:21:36
(UTC+00:00)

Daily predictions for brighter satellites

Satellite Brightness Start Highest point End
(mag) Time Altitude Azimuth Time Altitude Azimuth Time Altitude Azimuth
Cosmos 1862 4.3 00:02:24 10° NNW 00:06:13 46° W 00:10:02 10° SSW
Cosmos 2369 4.3 00:01:49 10° SW 00:07:22 55° WNW 00:12:03 15° NNE
Cosmos 2263 Rocket 3.8 00:09:52 10° N 00:12:01 20° NNE 00:12:01 20° NNE
NOSS 2-3 (C) 4.3 00:11:49 10° SW 00:16:02 51° NW 00:17:23 39° N
Cosmos 2082 4.5 00:14:30 10° NW 00:19:55 50° WSW 00:25:18 10° S
Cosmos 2360 4.4 00:14:34 10° SSW 00:20:14 71° WNW 00:22:49 34° NNE
Cosmos 1624 Rocket 4.0 00:16:00 10° NNW 00:20:42 64° NNE 00:20:42 64° NNE
Tsikada Rocket 4.1 00:15:06 10° S 00:21:27 80° W 00:27:54 10° N
Cosmos 2056 Rocket 3.8 00:16:28 10° NNW 00:20:23 50° N 00:20:23 50° N
Cosmos 1634 Rocket 4.1 00:16:17 10° N 00:21:25 54° NE 00:21:25 54° NE
Cosmos 1697 Rocket 3.7 00:19:51 10° SW 00:25:12 43° WNW 00:29:08 18° N
Cosmos 2278 4.4 00:21:28 10° SW 00:26:59 52° WNW 00:30:11 25° N
ATLAS 5 CENTAUR R/B 4.1 00:24:07 10° NW 00:29:28 32° WSW 00:35:22 10° S
BREEZE-M DEB (TANK) 3.7 00:28:20 10° W 00:31:31 37° WNW 00:31:31 37° WNW
Cosmos 1515 Rocket 4.4 00:32:04 10° SSW 00:35:55 48° W 00:35:55 48° W
Lacrosse 4 Rocket 4.0 00:48:56 10° W 00:51:15 15° NW 00:51:42 14° NW
USA 215 3.7 01:05:33 50° NNW 01:05:33 50° NNW 01:10:27 10° NW
Cosmos 1980 Rocket 4.1 01:25:08 10° WSW 01:29:41 25° NW 01:29:41 25° NW
H-2A R/B 4.5 00:56:18 10° W 01:39:36 47° SW 01:41:47 43° S
Cosmos 1980 Rocket 4.1 08:39:37 25° ENE 08:39:37 25° ENE 08:43:33 10° ESE
Lacrosse 5 4.3 08:52:00 18° NE 08:52:00 18° NE 08:53:15 10° NE
CZ-2C R/B 4.3 08:56:50 10° NE 09:00:51 26° E 09:00:54 26° E
Cosmos 1697 Rocket 4.0 09:21:39 30° SSE 09:21:39 30° SSE 09:24:22 10° SSE
Cosmos 2278 4.2 09:22:54 53° SE 09:22:54 53° SE 09:27:17 10° SSE
OAO 2 Rocket 4.4 09:33:03 38° SSE 09:33:03 38° SSE 09:36:53 10° ESE
Cosmos 967 Rocket 4.3 09:38:42 80° NW 09:38:42 80° NW 09:45:06 10° NNE
ATLAS 2AS CENTAUR R/B 4.2 09:37:21 15° NNW 09:42:48 32° NE 09:49:09 10° E
Cosmos 2082 Rocket 2.8 09:44:38 42° N 09:44:38 42° N 09:48:34 10° NNE
Cosmos 839 Rocket 4.1 09:47:17 62° W 09:48:12 68° WNW 09:54:31 10° NNE
COSMOS 2455 4.3 09:45:30 15° N 09:49:51 33° NE 09:55:14 10° ESE
SJ 16-02 1.8 09:49:23 54° SE 09:49:53 58° ESE 09:54:13 10° NNE
MSX 3.9 09:48:55 10° N 09:53:54 57° NW 09:53:54 57° NW
PAYLOAD A 4.0 09:53:08 10° N 09:58:28 70° WNW 09:59:19 59° SW
Cosmos 1833 Rocket 4.1 10:02:00 22° NNW 10:02:00 22° NNW 10:04:29 10° N
CZ-4C R/B 4.5 10:00:48 12° NNW 10:00:48 12° NNW 10:02:38 10° N
Cosmos 1153 Rocket 4.4 09:54:33 10° S 10:00:41 86° E 10:06:51 10° N
CZ-4B R/B 4.1 10:00:18 10° NNE 10:04:49 87° ESE 10:09:18 10° SSW
Meteor PRIRODA 4.2 10:04:48 10° NNE 10:08:26 57° E 10:12:01 10° S
BREEZE-M DEB (TANK) 4.3 10:01:51 27° WNW 10:09:34 62° NNE 10:14:04 10° E
Cosmos 2112 Rocket 3.9 10:08:03 44° NW 10:09:44 74° WSW 10:15:03 10° S
Cosmos 1605 Rocket 4.0 10:04:48 10° SSW 10:10:50 51° WNW 10:16:49 10° N
Cosmos 1680 Rocket 3.6 10:15:50 48° WNW 10:16:43 54° WSW 10:21:52 10° S
Cosmos 2360 Rocket 4.4 10:12:36 10° N 10:16:52 21° NE 10:21:08 10° E
SL-16 R/B 3.2 10:11:54 10° NNW 10:17:21 45° ENE 10:22:45 10° SE
Cosmos 158 Rocket 3.8 10:15:34 23° NNW 10:18:38 86° ENE 10:23:30 10° SSE
Okean O Rocket 3.7 10:15:09 10° NE 10:18:54 28° E 10:22:39 10° SSE
Cosmos 1980 Rocket 2.3 10:21:28 38° WNW 10:23:11 50° WSW 10:28:36 10° S
Cosmos 2058 3.0 10:25:09 51° WNW 10:25:09 51° WNW 10:29:01 10° N
Cosmos 2322 Rocket 3.2 10:21:33 10° NNW 10:27:00 46° ENE 10:32:26 10° SE
Cosmos 990 Rocket 4.0 10:24:14 20° SW 10:27:43 56° WNW 10:32:51 10° N
SL-4 R/B 3.7 10:28:00 22° NNW 10:30:06 31° NNE 10:34:23 10° E
Lacrosse 5 3.0 10:31:14 25° NW 10:31:36 25° NNW 10:35:49 10° NNE
CZ-4B R/B 4.5 10:28:28 10° N 10:29:33 18° N 10:29:33 18° N
Meteor 1-31 Rocket 4.2 10:28:48 10° N 10:30:27 23° NNW 10:30:27 23° NNW
STARLINK-42 4.5 10:29:46 13° SSW 10:33:13 49° SE 10:37:13 10° ENE
OAO 3 Rocket 4.0 10:32:56 25° SW 10:35:08 41° S 10:39:36 10° ESE
Cosmos 1892 2.5 10:31:46 10° SSW 10:35:32 74° W 10:39:19 10° N
STARLINK-45 4.2 10:34:21 14° SSW 10:37:44 57° SE 10:41:48 10° ENE
STARLINK-80 3.9 10:37:48 38° NW 10:38:12 40° NNW 10:41:50 10° NE
SKYMED 2 3.5 10:34:23 10° SSE 10:38:42 86° E 10:43:04 10° NNW
Cosmos 1484 Rocket 2.7 10:34:54 10° N 10:38:55 77° WNW 10:42:55 10° SSW
CZ-2C R/B 2.9 10:34:46 10° N 10:39:07 33° WNW 10:40:15 29° W
STARLINK-76 4.3 10:36:53 11° SSW 10:40:44 55° SE 10:44:47 10° ENE
Cosmos 1356 Rocket 4.0 10:40:46 34° WNW 10:41:24 36° W 10:45:18 10° SSW
ASTEX 1 3.8 10:37:28 10° SSW 10:42:02 38° W 10:46:40 10° NNW
STARLINK 4.2 10:38:28 11° SW 10:42:21 57° SE 10:46:25 10° ENE
STARLINK-32 4.1 10:40:07 11° SW 10:44:04 59° SE 10:48:09 10° ENE
Cosmos 1328 Rocket 4.0 10:40:14 10° N 10:44:33 63° E 10:48:48 10° SSE
Cosmos 1151 Rocket 3.6 10:40:53 10° N 10:45:14 59° E 10:49:30 10° SSE
Cosmos 1869 4.1 10:45:52 29° WSW 10:45:52 29° WSW 10:48:54 10° SSW
STARLINK-40 4.1 10:41:43 10° SW 10:45:43 61° SE 10:49:48 10° ENE
STARLINK-44 4.0 10:43:20 10° SW 10:47:24 63° SE 10:51:31 10° ENE
STARLINK-36 4.0 10:44:57 10° SW 10:49:04 65° SE 10:53:10 10° ENE
SJ-12 3.8 10:46:03 10° N 10:50:13 79° WNW 10:54:21 10° SSW
Cosmos 1459 Rocket 3.9 10:47:55 10° SSW 10:54:00 64° W 11:00:15 10° N
NOSS 3-4 (A) 4.4 10:47:15 10° NNW 10:54:11 58° NE 11:01:47 10° SE
NOSS 3-4 (C) 4.4 10:47:21 10° NNW 10:54:17 57° NE 11:01:52 10° SE
STARLINK-35 3.8 10:51:32 10° SW 10:55:39 74° SE 10:59:47 10° NE
Cosmos 1825 2.5 10:53:29 10° S 10:57:12 68° E 11:00:58 10° NNE
STARLINK-51 3.7 10:53:12 10° SW 10:57:20 77° SE 11:01:29 10° NE
Cosmos 1725 Rocket 4.2 10:51:55 10° S 10:58:08 76° E 11:04:26 10° N
STARLINK-30 3.7 10:54:52 10° SW 10:59:00 80° SE 11:03:09 10° NE
CZ-4B R/B 3.4 10:53:56 10° NNE 10:59:20 74° ESE 11:04:49 10° S
Cosmos 1898 Rocket 4.3 10:56:47 13° WSW 11:00:35 28° WNW 11:05:07 10° N
FENGYUN 3A 3.7 10:55:10 10° NNE 11:00:38 89° SE 11:06:02 10° SSW
STARLINK-33 3.7 10:56:31 10° SW 11:00:39 82° SE 11:04:48 10° NE
NOSS 3-3 (A) 4.5 10:56:40 16° WSW 11:01:00 38° NW 11:07:08 10° NNE
Cosmos 2016 Rocket 4.0 10:54:52 10° S 11:01:06 82° W 11:07:28 10° N
NOSS 3-3 (C) 4.5 10:56:44 16° WSW 11:01:07 38° NW 11:07:15 10° NNE
STARLINK-48 4.2 10:59:35 23° WNW 11:01:20 35° NNW 11:04:57 10° NE
STARLINK-50 3.6 10:58:10 10° SW 11:02:18 85° SE 11:06:28 10° NE
ALOS 2.2 10:58:18 10° N 11:02:59 78° WNW 11:07:38 10° SSW
Gbstr 26 Del rocket 3.9 11:03:25 20° WNW 11:04:56 25° NNW 11:08:06 10° NE
Cosmos 1408 Rocket 3.4 11:00:55 10° SSW 11:05:12 70° W 11:09:32 10° N
BREEZE-M DEB (TANK) 2.1 11:04:46 25° W 11:05:31 33° SW 11:07:48 10° SSE
STARLINK-56 3.6 11:01:28 10° SW 11:05:37 89° ESE 11:09:46 10° NE
METEOR-M 4.1 11:01:32 10° N 11:06:53 76° WNW 11:12:12 10° SSW
Starlink (trailer) 3.6 11:03:17 10° SW 11:07:26 88° NNW 11:11:36 10° NE
STARLINK-38 3.5 11:04:48 10° SW 11:08:57 85° NW 11:13:06 10° NE
STARLINK-65 3.5 11:06:30 10° SW 11:10:38 83° NW 11:14:48 10° NE
Cosmos 1937 Rocket 4.2 11:06:27 10° SW 11:10:58 31° WNW 11:15:31 10° N
Cosmos 1500 Rocket 4.3 11:06:54 10° S 11:11:17 59° E 11:15:41 10° NNE
Shenzhou-11 Module 1.6 11:09:56 23° WNW 11:11:28 86° SSW 11:14:10 10° ESE
STARLINK-26 3.5 11:08:21 10° WSW 11:12:26 71° NW 11:16:32 10° NE
PAYLOAD B 4.2 11:07:21 10° N 11:12:48 64° WNW 11:18:13 10° SSW
STARLINK-69 3.5 11:11:29 10° WSW 11:15:37 75° NW 11:19:46 10° NE
ATLAS CENTAUR R/B 1.7 11:10:59 10° SW 11:15:54 73° WNW 11:20:44 10° NNE
OAO 2 Rocket 4.4 11:12:00 11° WSW 11:16:25 36° SSW 11:21:00 10° SE
STARLINK-66 3.5 11:13:10 10° WSW 11:17:18 74° NW 11:21:28 10° NE
USA 267 4.4 11:11:49 10° ENE 11:18:05 46° SE 11:24:18 10° SSW
STARLINK-61 3.8 11:14:45 11° WSW 11:18:32 48° NNW 11:22:27 10° NE
Tsikada Rocket 4.1 11:12:24 10° N 11:18:50 87° E 11:25:10 10° S
STARLINK-41 3.6 11:14:46 10° WSW 11:18:54 72° NW 11:23:03 10° NE
Cosmos 1766 Rocket 4.2 11:15:06 10° SW 11:18:56 31° WNW 11:22:50 10° NNW
BREEZE-M DEB (TANK) 2.4 11:16:47 15° WNW 11:19:09 62° NNE 11:21:55 10° ESE
Cosmos 2150 Rocket 4.1 11:13:56 10° SSW 11:19:20 64° WNW 11:24:46 10° NNE
Cosmos 2100 Rocket 4.4 11:14:05 10° SW 11:19:46 37° WNW 11:25:25 10° N
STARLINK-64 3.6 11:16:26 10° WSW 11:20:32 69° NW 11:24:40 10° NE
STARLINK-70 3.6 11:18:07 10° WSW 11:22:14 67° NW 11:26:23 10° NE
STARLINK-68 3.6 11:19:52 10° WSW 11:23:58 63° NW 11:28:06 10° NE
Cosmos 2151 4.0 11:20:50 10° SW 11:24:24 25° WNW 11:27:59 10° NNW
Cosmos 1125 Rocket 3.8 11:19:44 10° SSW 11:25:00 77° ESE 11:30:18 10° NNE
STARLINK-58 3.6 11:21:20 10° WSW 11:25:26 63° NW 11:29:34 10° NE
SL-08 R/B 4.5 11:20:23 10° SSW 11:26:26 61° W 11:32:28 10° N
COSMO-SKYMED 1 3.5 11:23:07 10° SSW 11:26:50 28° W 11:30:34 10° NW
STARLINK-62 3.7 11:23:14 10° WSW 11:27:19 59° NW 11:31:26 10° NE
Cosmos 2082 Rocket 4.0 11:26:42 10° WNW 11:28:12 11° NW 11:29:43 10° NNW
Cosmos 1933 3.3 11:24:36 10° N 11:28:39 80° W 11:32:38 10° S
SJ 16-02 3.0 11:26:36 10° W 11:28:52 14° WNW 11:31:09 10° NNW
STARLINK-63 3.7 11:24:48 10° WSW 11:28:53 60° NW 11:33:00 10° NE
STARLINK 3.6 11:26:14 10° WSW 11:30:19 63° NW 11:34:27 10° NE
NOAA 6 4.1 11:25:23 10° N 11:30:25 58° WNW 11:35:25 10° SSW
STARLINK-72 3.7 11:28:04 10° WSW 11:32:09 58° NW 11:36:15 10° NE
Cosmos 1437 2.7 11:30:19 10° SSW 11:33:16 49° WNW 11:36:16 10° N
ATLAS 2AS CENTAUR R/B 2.9 11:26:53 10° NW 11:34:23 68° WSW 11:41:14 10° SSE
STARLINK-59 3.8 11:31:29 10° WSW 11:35:32 53° NNW 11:39:37 10° NE
COSMOS 2455 3.3 11:30:14 10° NW 11:35:52 43° WSW 11:41:29 10° S
COSMOS 2487 3.0 11:33:50 10° SW 11:37:00 33° WNW 11:40:11 10° N
STARLINK-57 3.8 11:33:14 10° WSW 11:37:17 52° NNW 11:41:21 10° NE
Cosmos 2237 4.4 11:32:44 10° NNW 11:38:29 82° ENE 11:44:11 10° SSE
STARLINK-28 3.9 11:36:32 10° WSW 11:40:33 49° NNW 11:44:35 10° NE
STARLINK-53 3.9 11:36:58 10° WSW 11:41:00 49° NNW 11:45:02 10° NE
Abrixas rocket 2.0 11:38:23 10° WSW 11:41:22 61° NNW 11:44:22 10° NE
STARLINK-75 4.0 11:38:14 10° WSW 11:42:12 43° NNW 11:46:11 10° NE
Lacrosse 5 rocket 3.4 11:41:07 10° N 11:43:11 14° NNE 11:45:14 10° ENE
STARLINK-54 4.0 11:39:56 10° WSW 11:43:55 46° NNW 11:47:56 10° NE
